Location: Friaudour
(46.0460°N, 1.2873°E)
Time: 19:42:13
(UTC+00:00)

Cosmos 1536 - Pass Details

Date: 14 July 2020
Orbit: 539 x 559 km, 82.5° (Epoch: 14 August)

Event Time Altitude Azimuth Distance (km) Brightness Sun altitude
Exits shadow 02:02:34 24° 163° (SSE) 1,180 4.1 -16.9°
Maximum altitude 02:04:47 54° 95° (E) 681 3.4 -16.7°
Drops below altitude 10° 02:08:46 10° 18° (NNE) 1,849 6.7 -16.4°
Sets 02:10:58 0° 14° (NNE) 2,745 7.8 -16.2°
